カタログに戻る

STARLINK-34616

運用中通信VLEO
NORAD 66320·PAYLOAD·🇺🇸 United States

打ち上げ Nov 6, 2025 から Cape Canaveral Space Force Station

Loading…

次のパス (今後24時間)

TLE

最新Source: CelesTrak SupGP

元期: Sep 15, 2026, 03:18 UTC

1 66320C 25253B   26258.13798611 -.00005587  00000+0 -20247-3 0  2585
2 66320  43.0014 222.2191 0001122 263.6498  59.2066 15.27566350    13

AllMySatでSTARLINK-34616をリアルタイム追跡

Download on the App Store